Location: Oshawa
(43.9000°N, 78.8670°W)
Time: 06:35:29
(UTC-05:00)

Transit 2A Rocket - Visible Passes

Search period start: 31 January 2015 00:00
Search period end: 10 February 2015 00:00
Orbit: 585 x 922 km, 66.7° (Epoch: 30 January)

Date Brightness Start Highest point End Pass type
(mag) Time Alt. Az. Time Alt. Az. Time Alt. Az.
31 Jan 7.0 18:43:47 10° W 18:48:22 26° NW 18:53:10 10° NNE visible
01 Feb 6.5 18:01:02 10° WSW 18:06:02 37° NW 18:11:27 10° NNE visible
01 Feb 7.7 19:48:41 10° NW 19:50:38 11° NNW 19:52:27 10° N visible
02 Feb 7.6 19:04:43 10° WNW 19:08:00 15° NNW 19:11:15 10° N visible
03 Feb 7.3 18:21:19 10° W 18:25:28 20° NW 18:29:44 10° N visible
05 Feb 7.6 18:42:47 10° NW 18:45:14 12° NNW 18:47:34 10° N visible
06 Feb 7.5 17:59:01 10° WNW 18:02:38 16° NNW 18:06:14 10° N visible
08 Feb 7.7 18:21:27 10° NNW 18:22:30 10° NNW 18:23:24 10° N visible
